GFSSGP_prec_pwat_021.txt.gz
Precipitable_Water
0.49 0.53 0.52 0.49 0.33 0.25 0.20 0.23 0.27 0.27 0.29 0.33 0.33 0.30 0.28 0.29 0.27 0.27 0.52 0.62 0.64 0.71 0.92 1.04 1.14 1.18 1.21 1.18 1.13 1.16 1.22 1.23 1.22 1.29 1.27 1.25 1.24 1.20 1.13 1.14 1.17 1.20 1.15 1.15 1.12 1.09 1.09 1.12 1.09
0.45 0.46 0.46 0.35 0.25 0.19 0.17 0.24 0.26 0.28 0.32 0.34 0.33 0.32 0.31 0.28 0.34 0.38 0.46 0.64 0.67 0.70 0.92 1.03 1.10 1.16 1.17 1.15 1.14 1.06 1.05 1.10 1.14 1.16 1.14 1.10 1.06 1.04 1.06 1.10 1.12 1.11 1.05 1.03 0.97 0.94 0.95 0.97 0.96
0.42 0.41 0.33 0.28 0.22 0.19 0.21 0.26 0.27 0.30 0.34 0.32 0.30 0.34 0.29 0.29 0.36 0.40 0.56 0.65 0.69 0.71 0.94 1.04 1.11 1.12 1.13 1.14 1.11 1.04 0.98 1.01 1.06 1.10 1.09 1.12 1.09 1.02 0.96 0.93 1.02 1.02 0.98 0.93 0.86 0.83 0.80 0.74 0.73
0.38 0.37 0.31 0.20 0.19 0.21 0.22 0.24 0.27 0.28 0.31 0.31 0.30 0.26 0.31 0.33 0.35 0.44 0.54 0.65 0.69 0.72 0.89 1.04 1.04 1.11 1.12 1.11 1.07 1.00 0.95 0.97 1.04 1.10 1.10 1.08 1.01 0.94 0.87 0.83 0.93 0.93 0.91 0.87 0.81 0.73 0.70 0.64 0.56
0.36 0.29 0.20 0.17 0.17 0.17 0.20 0.23 0.25 0.25 0.27 0.26 0.26 0.23 0.25 0.32 0.38 0.41 0.50 0.61 0.65 0.72 0.84 1.00 1.01 1.03 1.03 1.04 1.03 1.00 0.98 0.97 1.06 1.10 1.06 0.99 0.94 0.86 0.83 0.81 0.84 0.85 0.82 0.76 0.69 0.62 0.50 0.44 0.41
0.28 0.25 0.17 0.16 0.16 0.18 0.20 0.25 0.25 0.25 0.25 0.24 0.23 0.22 0.24 0.33 0.31 0.36 0.46 0.56 0.67 0.69 0.77 0.86 0.94 1.00 1.01 0.96 0.94 0.96 0.99 0.99 1.08 1.12 1.02 0.95 0.89 0.82 0.81 0.76 0.77 0.75 0.70 0.63 0.56 0.46 0.42 0.40 0.37
0.26 0.22 0.17 0.16 0.15 0.17 0.20 0.23 0.22 0.22 0.22 0.22 0.25 0.19 0.24 0.28 0.32 0.37 0.43 0.54 0.63 0.72 0.75 0.82 0.87 0.89 0.93 0.94 0.92 0.93 0.95 0.96 1.08 1.06 0.96 0.92 0.81 0.80 0.81 0.73 0.71 0.67 0.60 0.56 0.53 0.47 0.44 0.42 0.39
0.28 0.22 0.17 0.17 0.14 0.15 0.22 0.22 0.24 0.22 0.21 0.27 0.26 0.19 0.21 0.33 0.35 0.39 0.45 0.49 0.58 0.66 0.73 0.77 0.84 0.88 0.92 0.94 0.96 1.01 1.02 1.02 1.03 0.98 0.92 0.88 0.79 0.79 0.75 0.67 0.63 0.60 0.58 0.56 0.52 0.50 0.47 0.45 0.40
0.32 0.18 0.15 0.18 0.17 0.17 0.24 0.21 0.27 0.27 0.21 0.22 0.25 0.24 0.27 0.32 0.36 0.37 0.40 0.44 0.51 0.57 0.67 0.74 0.80 0.87 0.90 0.92 0.94 0.99 1.04 1.04 1.04 0.99 0.96 0.89 0.77 0.75 0.71 0.61 0.59 0.60 0.61 0.57 0.54 0.51 0.48 0.43 0.38
0.25 0.20 0.18 0.22 0.21 0.20 0.21 0.23 0.24 0.24 0.22 0.20 0.24 0.29 0.32 0.30 0.30 0.30 0.33 0.36 0.44 0.49 0.57 0.68 0.75 0.79 0.86 0.89 0.92 0.95 0.99 1.02 1.02 1.00 0.98 0.93 0.83 0.79 0.69 0.60 0.58 0.62 0.60 0.57 0.55 0.52 0.46 0.40 0.38
0.28 0.19 0.23 0.24 0.26 0.25 0.23 0.22 0.25 0.24 0.20 0.22 0.23 0.24 0.25 0.27 0.27 0.28 0.29 0.33 0.38 0.50 0.58 0.63 0.69 0.76 0.81 0.82 0.84 0.86 0.85 0.94 0.97 0.98 0.96 0.91 0.84 0.74 0.65 0.59 0.57 0.62 0.60 0.54 0.53 0.47 0.38 0.38 0.37
0.24 0.28 0.28 0.27 0.29 0.26 0.22 0.24 0.24 0.26 0.24 0.27 0.26 0.27 0.27 0.25 0.24 0.25 0.26 0.30 0.35 0.39 0.49 0.60 0.65 0.70 0.75 0.80 0.82 0.83 0.84 0.86 0.89 0.90 0.93 0.87 0.82 0.69 0.60 0.53 0.53 0.58 0.56 0.51 0.49 0.43 0.41 0.40 0.39
0.29 0.29 0.30 0.32 0.31 0.31 0.29 0.24 0.25 0.26 0.30 0.30 0.31 0.29 0.28 0.28 0.27 0.28 0.29 0.30 0.32 0.35 0.41 0.50 0.61 0.63 0.69 0.73 0.75 0.77 0.78 0.82 0.85 0.87 0.88 0.84 0.76 0.64 0.57 0.51 0.53 0.56 0.55 0.50 0.45 0.39 0.39 0.39 0.39
0.31 0.32 0.31 0.32 0.32 0.33 0.30 0.28 0.29 0.27 0.30 0.29 0.29 0.28 0.30 0.30 0.30 0.30 0.31 0.31 0.31 0.32 0.37 0.46 0.53 0.60 0.66 0.67 0.71 0.72 0.77 0.79 0.83 0.83 0.82 0.82 0.74 0.66 0.56 0.50 0.51 0.52 0.50 0.46 0.38 0.37 0.36 0.36 0.37
0.36 0.29 0.31 0.32 0.32 0.32 0.34 0.27 0.29 0.33 0.34 0.32 0.31 0.30 0.30 0.30 0.31 0.31 0.32 0.32 0.33 0.37 0.39 0.42 0.46 0.55 0.59 0.61 0.68 0.73 0.75 0.77 0.79 0.81 0.81 0.78 0.75 0.67 0.58 0.50 0.49 0.48 0.47 0.40 0.35 0.35 0.36 0.36 0.36
0.32 0.32 0.26 0.32 0.34 0.35 0.33 0.24 0.30 0.33 0.32 0.31 0.32 0.34 0.35 0.35 0.34 0.35 0.37 0.37 0.38 0.39 0.41 0.44 0.49 0.52 0.57 0.59 0.62 0.68 0.73 0.76 0.77 0.81 0.80 0.77 0.74 0.68 0.58 0.50 0.48 0.46 0.41 0.36 0.33 0.32 0.32 0.33 0.34
0.32 0.25 0.27 0.29 0.34 0.34 0.33 0.29 0.34 0.38 0.37 0.35 0.36 0.35 0.35 0.36 0.38 0.40 0.42 0.43 0.43 0.43 0.42 0.42 0.46 0.50 0.56 0.62 0.67 0.69 0.71 0.72 0.74 0.78 0.79 0.76 0.72 0.68 0.59 0.52 0.48 0.45 0.37 0.34 0.31 0.30 0.31 0.31 0.33
0.29 0.29 0.29 0.27 0.33 0.35 0.33 0.32 0.36 0.38 0.37 0.35 0.35 0.34 0.35 0.36 0.39 0.42 0.43 0.45 0.45 0.45 0.45 0.45 0.46 0.48 0.53 0.60 0.66 0.71 0.71 0.73 0.76 0.75 0.76 0.77 0.74 0.69 0.61 0.54 0.50 0.44 0.38 0.33 0.32 0.30 0.32 0.32 0.32
0.34 0.32 0.29 0.32 0.36 0.33 0.31 0.31 0.33 0.35 0.35 0.35 0.36 0.37 0.36 0.37 0.42 0.43 0.43 0.44 0.45 0.46 0.45 0.45 0.44 0.45 0.46 0.51 0.54 0.58 0.61 0.68 0.71 0.75 0.77 0.77 0.74 0.69 0.63 0.56 0.52 0.47 0.40 0.36 0.35 0.33 0.31 0.32 0.33
0.33 0.30 0.29 0.32 0.35 0.34 0.33 0.31 0.34 0.35 0.36 0.38 0.38 0.37 0.37 0.37 0.40 0.40 0.42 0.43 0.43 0.44 0.45 0.46 0.45 0.47 0.49 0.51 0.57 0.59 0.61 0.65 0.69 0.72 0.72 0.75 0.73 0.70 0.66 0.60 0.54 0.50 0.43 0.39 0.37 0.35 0.34 0.34 0.34
0.34 0.31 0.31 0.32 0.37 0.35 0.32 0.30 0.35 0.38 0.42 0.42 0.40 0.39 0.41 0.41 0.40 0.41 0.43 0.43 0.44 0.44 0.45 0.45 0.47 0.47 0.49 0.51 0.56 0.60 0.62 0.60 0.59 0.63 0.66 0.70 0.71 0.70 0.67 0.63 0.59 0.55 0.49 0.41 0.40 0.38 0.35 0.32 0.36
0.32 0.40 0.38 0.33 0.32 0.29 0.38 0.25 0.34 0.39 0.40 0.38 0.38 0.41 0.42 0.42 0.44 0.45 0.45 0.46 0.46 0.47 0.49 0.48 0.49 0.49 0.50 0.52 0.53 0.54 0.54 0.50 0.54 0.56 0.61 0.64 0.67 0.68 0.69 0.67 0.65 0.60 0.56 0.50 0.45 0.42 0.38 0.35 0.32
0.38 0.43 0.38 0.37 0.36 0.35 0.36 0.31 0.33 0.38 0.34 0.34 0.38 0.42 0.43 0.45 0.46 0.47 0.49 0.50 0.51 0.51 0.51 0.51 0.50 0.50 0.50 0.51 0.52 0.51 0.51 0.53 0.55 0.55 0.53 0.56 0.60 0.61 0.62 0.63 0.65 0.63 0.61 0.58 0.53 0.47 0.42 0.38 0.34
0.46 0.40 0.40 0.40 0.38 0.27 0.34 0.32 0.30 0.33 0.34 0.34 0.38 0.41 0.45 0.48 0.49 0.50 0.51 0.52 0.52 0.53 0.53 0.53 0.52 0.51 0.52 0.51 0.50 0.50 0.50 0.50 0.50 0.53 0.52 0.54 0.55 0.56 0.57 0.60 0.61 0.61 0.61 0.60 0.57 0.53 0.47 0.41 0.37
0.41 0.37 0.29 0.27 0.28 0.25 0.38 0.33 0.34 0.39 0.38 0.37 0.39 0.42 0.45 0.48 0.49 0.49 0.49 0.50 0.51 0.52 0.54 0.53 0.53 0.51 0.52 0.52 0.52 0.51 0.50 0.50 0.50 0.50 0.50 0.51 0.52 0.53 0.54 0.56 0.57 0.57 0.58 0.61 0.61 0.58 0.52 0.45 0.40
0.37 0.35 0.28 0.21 0.20 0.24 0.36 0.28 0.32 0.42 0.43 0.45 0.45 0.45 0.47 0.49 0.51 0.52 0.52 0.53 0.53 0.53 0.54 0.53 0.51 0.50 0.52 0.53 0.54 0.55 0.54 0.54 0.53 0.52 0.52 0.51 0.51 0.52 0.54 0.54 0.55 0.56 0.56 0.57 0.59 0.59 0.56 0.50 0.45
0.33 0.29 0.36 0.31 0.29 0.26 0.24 0.28 0.34 0.37 0.37 0.41 0.44 0.45 0.45 0.47 0.51 0.52 0.51 0.49 0.49 0.49 0.49 0.50 0.49 0.48 0.49 0.50 0.53 0.54 0.56 0.56 0.56 0.56 0.56 0.56 0.54 0.52 0.53 0.53 0.54 0.55 0.54 0.55 0.55 0.56 0.55 0.52 0.48
0.34 0.40 0.30 0.32 0.23 0.19 0.22 0.22 0.23 0.29 0.34 0.39 0.39 0.40 0.44 0.47 0.47 0.49 0.49 0.49 0.48 0.48 0.49 0.47 0.46 0.44 0.44 0.45 0.47 0.50 0.52 0.54 0.56 0.57 0.58 0.58 0.58 0.58 0.56 0.54 0.52 0.54 0.55 0.55 0.54 0.53 0.55 0.53 0.50
0.27 0.25 0.27 0.28 0.26 0.19 0.18 0.19 0.29 0.32 0.38 0.39 0.41 0.43 0.45 0.45 0.44 0.45 0.50 0.50 0.47 0.45 0.43 0.41 0.39 0.37 0.36 0.37 0.39 0.41 0.42 0.46 0.46 0.47 0.52 0.57 0.59 0.60 0.58 0.57 0.56 0.54 0.52 0.55 0.55 0.53 0.53 0.52 0.51
0.35 0.30 0.31 0.25 0.21 0.26 0.26 0.28 0.44 0.41 0.40 0.42 0.43 0.45 0.47 0.48 0.45 0.45 0.47 0.44 0.40 0.36 0.35 0.33 0.32 0.32 0.31 0.30 0.31 0.32 0.33 0.35 0.35 0.36 0.39 0.45 0.51 0.57 0.59 0.59 0.58 0.57 0.58 0.54 0.51 0.52 0.52 0.51 0.50

GFSSGP_prec_pwat_024.txt.gz
Precipitable_Water
0.43 0.50 0.47 0.51 0.35 0.33 0.24 0.25 0.25 0.27 0.31 0.33 0.32 0.28 0.26 0.30 0.27 0.27 0.53 0.61 0.64 0.77 0.89 1.02 1.09 1.14 1.18 1.21 1.23 1.25 1.28 1.29 1.29 1.27 1.28 1.30 1.28 1.28 1.26 1.19 1.19 1.20 1.14 1.13 1.10 1.10 1.06 1.08 1.05
0.44 0.43 0.47 0.39 0.27 0.23 0.21 0.25 0.26 0.27 0.31 0.33 0.32 0.31 0.30 0.27 0.34 0.40 0.48 0.62 0.67 0.75 0.83 0.96 1.09 1.12 1.14 1.15 1.14 1.09 1.11 1.16 1.15 1.24 1.21 1.20 1.17 1.14 1.13 1.16 1.18 1.16 1.10 1.09 1.03 0.99 1.00 0.98 0.97
0.41 0.40 0.36 0.29 0.24 0.21 0.21 0.26 0.27 0.29 0.32 0.29 0.27 0.32 0.27 0.27 0.35 0.40 0.57 0.62 0.67 0.75 0.91 0.93 1.03 1.10 1.13 1.13 1.09 1.05 1.02 1.03 1.07 1.10 1.12 1.11 1.08 1.07 1.04 1.06 1.10 1.08 1.02 1.00 0.94 0.88 0.85 0.79 0.74
0.40 0.40 0.34 0.20 0.20 0.20 0.21 0.23 0.25 0.25 0.29 0.28 0.26 0.24 0.31 0.33 0.32 0.43 0.52 0.61 0.62 0.71 0.97 1.01 1.04 1.06 1.08 1.10 1.11 1.07 1.00 0.99 1.02 1.06 1.06 1.07 1.07 1.02 0.93 0.89 0.94 1.00 0.97 0.93 0.87 0.79 0.71 0.64 0.57
0.38 0.33 0.21 0.19 0.20 0.18 0.18 0.20 0.24 0.23 0.26 0.26 0.25 0.23 0.24 0.32 0.37 0.39 0.47 0.57 0.57 0.68 0.88 1.01 1.06 1.11 1.11 1.07 1.06 1.06 1.01 0.96 0.98 1.06 1.08 1.06 0.99 0.94 0.83 0.85 0.87 0.87 0.87 0.83 0.76 0.70 0.57 0.47 0.40
0.29 0.25 0.18 0.18 0.20 0.19 0.20 0.23 0.22 0.24 0.26 0.25 0.24 0.22 0.24 0.36 0.30 0.34 0.45 0.51 0.61 0.63 0.79 0.96 1.04 1.06 1.12 1.14 1.10 1.04 0.99 0.95 0.99 1.06 1.07 1.06 0.98 0.88 0.78 0.78 0.79 0.79 0.76 0.71 0.65 0.50 0.41 0.39 0.36
0.24 0.22 0.16 0.17 0.16 0.18 0.22 0.23 0.21 0.21 0.20 0.22 0.27 0.18 0.24 0.33 0.39 0.39 0.42 0.52 0.59 0.66 0.69 0.82 0.91 0.97 1.03 1.07 1.08 1.06 1.01 0.97 0.99 1.05 1.04 1.06 0.96 0.87 0.77 0.74 0.75 0.72 0.66 0.62 0.55 0.46 0.42 0.39 0.36
0.27 0.22 0.15 0.18 0.17 0.18 0.24 0.23 0.23 0.21 0.19 0.26 0.27 0.19 0.23 0.33 0.38 0.39 0.42 0.46 0.57 0.64 0.68 0.72 0.81 0.85 0.91 0.97 0.99 0.97 0.99 1.01 1.04 1.04 1.02 1.02 0.94 0.85 0.75 0.73 0.70 0.65 0.60 0.59 0.55 0.50 0.46 0.43 0.38
0.31 0.17 0.14 0.17 0.20 0.21 0.26 0.24 0.27 0.28 0.23 0.23 0.27 0.26 0.28 0.34 0.35 0.34 0.36 0.41 0.49 0.58 0.66 0.69 0.73 0.80 0.81 0.84 0.87 0.90 0.91 0.96 1.02 1.06 1.06 1.02 0.95 0.86 0.74 0.70 0.65 0.61 0.59 0.57 0.56 0.52 0.50 0.44 0.37
0.23 0.17 0.17 0.23 0.24 0.23 0.24 0.24 0.25 0.24 0.22 0.21 0.24 0.29 0.33 0.36 0.33 0.30 0.31 0.34 0.41 0.47 0.56 0.68 0.70 0.74 0.80 0.85 0.90 0.90 0.92 0.98 1.03 1.02 1.00 1.00 0.99 0.93 0.80 0.73 0.66 0.62 0.61 0.58 0.56 0.53 0.49 0.42 0.38
0.29 0.19 0.22 0.23 0.27 0.29 0.25 0.22 0.24 0.22 0.20 0.22 0.23 0.26 0.30 0.31 0.32 0.31 0.30 0.30 0.33 0.45 0.53 0.63 0.71 0.77 0.81 0.82 0.88 0.92 0.92 0.94 0.99 0.98 0.96 0.96 0.93 0.91 0.79 0.67 0.62 0.60 0.59 0.56 0.55 0.50 0.43 0.40 0.40
0.25 0.31 0.30 0.30 0.31 0.30 0.28 0.29 0.25 0.25 0.24 0.28 0.27 0.29 0.30 0.29 0.29 0.30 0.30 0.31 0.31 0.34 0.46 0.59 0.66 0.74 0.81 0.86 0.85 0.89 0.89 0.88 0.91 0.97 0.98 0.91 0.88 0.84 0.76 0.63 0.59 0.55 0.55 0.51 0.48 0.44 0.38 0.39 0.40
0.28 0.31 0.35 0.34 0.34 0.33 0.34 0.32 0.32 0.30 0.31 0.33 0.31 0.29 0.29 0.29 0.30 0.32 0.33 0.34 0.35 0.34 0.37 0.49 0.62 0.65 0.73 0.79 0.83 0.84 0.85 0.85 0.84 0.92 0.98 0.95 0.87 0.80 0.74 0.67 0.60 0.55 0.53 0.50 0.46 0.41 0.36 0.36 0.36
0.34 0.35 0.35 0.35 0.34 0.34 0.33 0.33 0.35 0.32 0.36 0.35 0.34 0.33 0.33 0.32 0.32 0.32 0.33 0.34 0.35 0.37 0.39 0.44 0.58 0.64 0.69 0.72 0.77 0.78 0.82 0.85 0.87 0.87 0.92 0.94 0.90 0.83 0.74 0.69 0.60 0.56 0.54 0.51 0.45 0.39 0.35 0.34 0.34
0.40 0.34 0.34 0.34 0.35 0.34 0.36 0.31 0.31 0.36 0.37 0.34 0.34 0.36 0.37 0.36 0.37 0.36 0.35 0.36 0.39 0.39 0.41 0.44 0.52 0.67 0.70 0.71 0.75 0.79 0.81 0.83 0.84 0.88 0.92 0.93 0.90 0.84 0.76 0.68 0.62 0.60 0.57 0.51 0.44 0.38 0.35 0.34 0.34
0.34 0.33 0.28 0.35 0.37 0.38 0.35 0.26 0.34 0.39 0.38 0.37 0.38 0.39 0.37 0.38 0.38 0.40 0.41 0.42 0.44 0.44 0.45 0.48 0.51 0.59 0.70 0.73 0.76 0.82 0.85 0.85 0.87 0.90 0.92 0.92 0.90 0.85 0.76 0.67 0.63 0.62 0.56 0.49 0.41 0.35 0.33 0.32 0.32
0.34 0.28 0.30 0.33 0.39 0.36 0.34 0.29 0.36 0.39 0.37 0.36 0.38 0.38 0.38 0.38 0.40 0.43 0.45 0.46 0.48 0.49 0.49 0.49 0.52 0.53 0.57 0.69 0.77 0.82 0.87 0.88 0.90 0.92 0.93 0.92 0.90 0.87 0.78 0.69 0.66 0.64 0.55 0.47 0.40 0.35 0.33 0.31 0.31
0.33 0.33 0.35 0.33 0.38 0.38 0.35 0.33 0.37 0.38 0.37 0.36 0.37 0.38 0.38 0.39 0.42 0.45 0.45 0.46 0.48 0.49 0.49 0.49 0.50 0.52 0.56 0.61 0.69 0.77 0.84 0.88 0.93 0.92 0.94 0.94 0.90 0.88 0.79 0.71 0.67 0.64 0.54 0.46 0.41 0.35 0.33 0.31 0.31
0.39 0.36 0.34 0.35 0.37 0.33 0.32 0.32 0.35 0.38 0.39 0.38 0.39 0.40 0.41 0.41 0.46 0.46 0.46 0.46 0.46 0.47 0.48 0.48 0.48 0.50 0.54 0.55 0.58 0.63 0.67 0.78 0.84 0.90 0.93 0.94 0.94 0.90 0.83 0.73 0.66 0.63 0.55 0.48 0.42 0.37 0.33 0.32 0.33
0.38 0.35 0.33 0.36 0.38 0.35 0.34 0.33 0.37 0.41 0.41 0.42 0.42 0.42 0.44 0.45 0.46 0.46 0.46 0.47 0.46 0.46 0.47 0.48 0.48 0.50 0.53 0.55 0.63 0.66 0.68 0.73 0.79 0.82 0.85 0.87 0.87 0.85 0.81 0.75 0.67 0.63 0.57 0.52 0.45 0.39 0.35 0.34 0.33
0.39 0.36 0.34 0.33 0.38 0.38 0.36 0.34 0.38 0.43 0.44 0.43 0.44 0.47 0.47 0.46 0.45 0.46 0.47 0.48 0.48 0.48 0.48 0.48 0.50 0.51 0.52 0.55 0.58 0.61 0.65 0.67 0.67 0.72 0.77 0.80 0.82 0.84 0.80 0.76 0.70 0.64 0.61 0.56 0.52 0.45 0.39 0.34 0.35
0.32 0.41 0.40 0.38 0.34 0.29 0.40 0.25 0.34 0.39 0.40 0.40 0.43 0.45 0.46 0.46 0.47 0.48 0.48 0.50 0.52 0.52 0.53 0.52 0.51 0.52 0.53 0.56 0.56 0.57 0.56 0.53 0.56 0.58 0.63 0.68 0.76 0.77 0.77 0.74 0.71 0.67 0.62 0.60 0.58 0.54 0.47 0.41 0.35
0.39 0.45 0.40 0.37 0.34 0.32 0.33 0.30 0.32 0.39 0.36 0.39 0.43 0.44 0.44 0.45 0.46 0.47 0.49 0.51 0.53 0.55 0.55 0.55 0.54 0.54 0.53 0.54 0.55 0.54 0.53 0.54 0.56 0.57 0.57 0.57 0.61 0.66 0.70 0.73 0.71 0.66 0.64 0.61 0.61 0.59 0.53 0.47 0.42
0.44 0.39 0.37 0.36 0.33 0.24 0.32 0.31 0.29 0.33 0.35 0.37 0.42 0.43 0.44 0.45 0.47 0.49 0.51 0.53 0.53 0.54 0.53 0.54 0.54 0.55 0.57 0.57 0.56 0.54 0.52 0.52 0.52 0.54 0.54 0.55 0.57 0.59 0.62 0.63 0.66 0.68 0.65 0.60 0.59 0.61 0.60 0.56 0.49
0.39 0.34 0.24 0.21 0.22 0.21 0.34 0.29 0.29 0.38 0.39 0.39 0.40 0.41 0.43 0.46 0.46 0.48 0.50 0.52 0.53 0.53 0.54 0.53 0.52 0.51 0.54 0.56 0.57 0.57 0.57 0.56 0.54 0.54 0.53 0.53 0.55 0.56 0.59 0.59 0.58 0.60 0.64 0.63 0.61 0.58 0.58 0.60 0.57
0.33 0.31 0.22 0.15 0.15 0.17 0.25 0.18 0.21 0.35 0.40 0.42 0.43 0.44 0.45 0.47 0.49 0.48 0.49 0.47 0.48 0.50 0.50 0.51 0.50 0.49 0.51 0.52 0.54 0.55 0.54 0.54 0.55 0.55 0.56 0.56 0.56 0.56 0.58 0.59 0.60 0.59 0.59 0.61 0.61 0.59 0.58 0.58 0.59
0.33 0.26 0.32 0.26 0.26 0.21 0.20 0.24 0.27 0.32 0.37 0.40 0.42 0.42 0.43 0.45 0.46 0.46 0.46 0.46 0.47 0.47 0.46 0.45 0.45 0.45 0.46 0.47 0.48 0.48 0.47 0.47 0.48 0.50 0.52 0.55 0.57 0.57 0.58 0.59 0.58 0.59 0.59 0.58 0.57 0.57 0.56 0.57 0.56
0.28 0.31 0.22 0.26 0.18 0.16 0.19 0.18 0.17 0.24 0.29 0.33 0.36 0.40 0.44 0.45 0.45 0.46 0.46 0.44 0.44 0.44 0.43 0.40 0.38 0.37 0.37 0.39 0.39 0.39 0.39 0.41 0.40 0.40 0.40 0.42 0.46 0.49 0.53 0.56 0.58 0.58 0.60 0.60 0.58 0.56 0.56 0.55 0.55
0.24 0.22 0.26 0.26 0.23 0.17 0.13 0.14 0.24 0.29 0.34 0.35 0.39 0.43 0.44 0.47 0.49 0.51 0.52 0.48 0.44 0.42 0.40 0.38 0.36 0.33 0.33 0.35 0.35 0.34 0.33 0.32 0.31 0.30 0.30 0.32 0.35 0.37 0.40 0.45 0.50 0.54 0.57 0.60 0.60 0.58 0.57 0.54 0.55
0.25 0.21 0.24 0.20 0.17 0.22 0.23 0.23 0.36 0.38 0.41 0.44 0.46 0.49 0.48 0.48 0.45 0.44 0.46 0.43 0.37 0.34 0.33 0.32 0.32 0.32 0.31 0.31 0.29 0.30 0.29 0.27 0.25 0.24 0.23 0.24 0.24 0.26 0.28 0.30 0.32 0.39 0.46 0.51 0.57 0.58 0.59 0.57 0.53

GFSSGP_prec_pwat_030.txt.gz
Precipitable_Water
0.36 0.42 0.51 0.55 0.30 0.25 0.20 0.22 0.28 0.23 0.24 0.29 0.30 0.27 0.25 0.27 0.23 0.18 0.52 0.65 0.73 0.81 0.97 1.07 1.13 1.22 1.27 1.31 1.32 1.33 1.37 1.36 1.37 1.38 1.34 1.34 1.32 1.33 1.32 1.32 1.21 1.13 1.10 1.09 1.09 1.07 1.00 1.02 1.00
0.38 0.47 0.53 0.40 0.22 0.17 0.18 0.24 0.21 0.23 0.28 0.29 0.29 0.28 0.26 0.23 0.34 0.37 0.45 0.62 0.74 0.86 0.93 1.07 1.10 1.14 1.20 1.21 1.22 1.22 1.21 1.21 1.23 1.21 1.20 1.17 1.15 1.16 1.19 1.13 1.08 1.06 1.06 1.03 1.02 0.98 0.97 0.98 0.97
0.41 0.47 0.34 0.26 0.19 0.15 0.16 0.21 0.21 0.25 0.28 0.25 0.22 0.30 0.26 0.24 0.34 0.38 0.53 0.58 0.72 0.83 0.92 1.01 1.11 1.15 1.16 1.16 1.14 1.11 1.11 1.12 1.12 1.11 1.12 1.13 1.12 1.11 1.06 1.05 1.05 1.02 1.00 0.99 0.95 0.89 0.87 0.84 0.82
0.41 0.38 0.32 0.18 0.15 0.16 0.16 0.17 0.20 0.22 0.26 0.27 0.24 0.23 0.29 0.35 0.34 0.40 0.49 0.54 0.63 0.77 0.90 0.94 1.06 1.13 1.16 1.16 1.15 1.13 1.11 1.09 1.05 1.07 1.10 1.07 1.04 1.01 0.99 1.01 0.99 0.93 0.94 0.95 0.93 0.87 0.78 0.68 0.61
0.40 0.30 0.19 0.17 0.17 0.18 0.21 0.20 0.21 0.21 0.24 0.25 0.27 0.21 0.21 0.34 0.45 0.45 0.47 0.52 0.56 0.70 0.84 0.91 0.99 1.07 1.13 1.16 1.17 1.14 1.13 1.12 1.08 1.11 1.06 1.06 1.03 0.99 0.98 0.97 0.93 0.93 0.91 0.89 0.87 0.81 0.71 0.59 0.47
0.25 0.23 0.15 0.14 0.16 0.19 0.23 0.22 0.23 0.22 0.24 0.25 0.25 0.25 0.24 0.38 0.39 0.43 0.51 0.52 0.60 0.66 0.77 0.87 0.95 1.02 1.08 1.12 1.14 1.14 1.10 1.07 1.05 1.12 1.13 1.13 1.07 1.02 0.98 0.94 0.86 0.88 0.86 0.83 0.82 0.74 0.61 0.46 0.38
0.21 0.17 0.13 0.14 0.15 0.18 0.22 0.26 0.21 0.20 0.21 0.22 0.26 0.20 0.26 0.35 0.39 0.46 0.52 0.55 0.56 0.67 0.76 0.85 0.94 0.99 1.04 1.08 1.11 1.12 1.09 1.07 1.08 1.07 1.07 1.08 1.07 1.04 1.02 0.93 0.84 0.81 0.81 0.78 0.74 0.63 0.48 0.41 0.35
0.25 0.19 0.13 0.16 0.16 0.17 0.25 0.24 0.25 0.23 0.21 0.29 0.27 0.19 0.22 0.33 0.42 0.46 0.52 0.55 0.57 0.60 0.71 0.78 0.87 0.95 0.98 1.02 1.05 1.08 1.10 1.08 1.05 1.05 1.07 1.11 1.08 1.00 0.97 0.92 0.85 0.76 0.75 0.71 0.65 0.54 0.46 0.41 0.35
0.28 0.13 0.10 0.16 0.17 0.20 0.26 0.23 0.29 0.30 0.25 0.25 0.26 0.24 0.27 0.35 0.43 0.45 0.44 0.47 0.50 0.56 0.62 0.73 0.80 0.88 0.96 1.00 1.03 1.02 1.05 1.06 1.07 1.04 1.06 1.10 1.11 1.05 1.00 0.96 0.87 0.79 0.71 0.68 0.61 0.53 0.48 0.42 0.35
0.20 0.14 0.13 0.22 0.26 0.24 0.27 0.28 0.30 0.28 0.26 0.23 0.25 0.28 0.31 0.37 0.38 0.36 0.37 0.36 0.41 0.46 0.53 0.64 0.73 0.80 0.89 0.95 1.00 0.98 1.04 1.05 1.06 1.03 1.04 1.08 1.08 1.04 1.00 1.01 0.95 0.85 0.70 0.66 0.59 0.55 0.49 0.39 0.33
0.25 0.16 0.21 0.23 0.26 0.28 0.25 0.26 0.30 0.27 0.25 0.30 0.30 0.31 0.32 0.34 0.35 0.35 0.35 0.36 0.37 0.42 0.50 0.59 0.63 0.72 0.79 0.83 0.89 0.98 1.02 1.02 1.03 1.02 1.01 1.02 1.06 1.03 0.99 1.00 0.96 0.89 0.74 0.66 0.59 0.53 0.46 0.32 0.31
0.22 0.27 0.28 0.27 0.31 0.32 0.31 0.35 0.32 0.34 0.32 0.37 0.38 0.38 0.37 0.36 0.35 0.35 0.34 0.35 0.38 0.43 0.48 0.57 0.65 0.68 0.73 0.80 0.82 0.84 0.93 1.00 1.00 1.00 1.01 0.97 0.96 0.95 0.93 0.92 0.95 0.90 0.79 0.63 0.57 0.50 0.45 0.36 0.36
0.28 0.30 0.33 0.35 0.36 0.37 0.37 0.34 0.34 0.35 0.38 0.40 0.40 0.39 0.38 0.39 0.40 0.42 0.42 0.42 0.41 0.40 0.42 0.45 0.66 0.70 0.73 0.77 0.81 0.85 0.86 0.88 0.89 0.92 0.99 0.99 0.92 0.94 0.95 0.91 0.88 0.88 0.84 0.70 0.57 0.49 0.43 0.34 0.34
0.32 0.32 0.31 0.34 0.35 0.36 0.34 0.36 0.38 0.38 0.42 0.41 0.41 0.40 0.41 0.42 0.43 0.45 0.46 0.46 0.46 0.46 0.46 0.48 0.53 0.68 0.76 0.77 0.81 0.85 0.92 0.95 0.97 0.98 0.99 1.01 1.01 1.00 0.97 0.92 0.88 0.84 0.84 0.79 0.67 0.54 0.43 0.33 0.33
0.38 0.32 0.35 0.35 0.36 0.37 0.40 0.35 0.37 0.41 0.43 0.41 0.39 0.40 0.42 0.43 0.45 0.44 0.46 0.47 0.49 0.50 0.51 0.51 0.51 0.65 0.76 0.79 0.83 0.90 0.97 1.02 1.03 1.06 1.09 1.06 1.02 0.99 1.02 0.98 0.92 0.90 0.91 0.85 0.77 0.64 0.51 0.38 0.33
0.36 0.36 0.29 0.36 0.40 0.41 0.39 0.31 0.40 0.45 0.44 0.39 0.39 0.40 0.41 0.43 0.45 0.47 0.49 0.49 0.50 0.51 0.51 0.53 0.56 0.61 0.72 0.82 0.92 0.98 1.03 1.07 1.09 1.12 1.15 1.14 1.12 1.07 0.98 0.96 0.99 0.97 0.95 0.90 0.81 0.70 0.54 0.43 0.35
0.34 0.26 0.29 0.33 0.40 0.38 0.37 0.32 0.40 0.45 0.43 0.41 0.42 0.42 0.43 0.45 0.47 0.49 0.51 0.51 0.52 0.53 0.54 0.54 0.57 0.61 0.71 0.81 0.93 1.04 1.09 1.08 1.09 1.12 1.13 1.15 1.14 1.14 1.06 1.03 1.03 1.04 0.96 0.89 0.83 0.72 0.61 0.48 0.40
0.27 0.27 0.29 0.29 0.36 0.38 0.36 0.36 0.41 0.43 0.42 0.42 0.44 0.46 0.47 0.47 0.48 0.52 0.53 0.54 0.54 0.54 0.54 0.55 0.57 0.61 0.67 0.79 0.87 0.92 0.98 1.03 1.06 1.07 1.08 1.10 1.13 1.16 1.13 1.11 1.10 1.07 0.97 0.89 0.82 0.73 0.66 0.57 0.50
0.36 0.34 0.33 0.37 0.42 0.38 0.37 0.36 0.37 0.41 0.42 0.41 0.44 0.46 0.45 0.45 0.48 0.50 0.51 0.51 0.51 0.51 0.51 0.53 0.54 0.58 0.62 0.65 0.67 0.71 0.76 0.85 0.93 1.00 1.04 1.09 1.13 1.12 1.12 1.13 1.09 1.06 0.98 0.92 0.84 0.78 0.70 0.63 0.59
0.39 0.37 0.36 0.39 0.42 0.38 0.34 0.34 0.39 0.40 0.40 0.41 0.42 0.43 0.44 0.44 0.45 0.46 0.47 0.47 0.47 0.47 0.49 0.51 0.52 0.55 0.58 0.61 0.65 0.70 0.70 0.72 0.80 0.86 0.91 0.95 1.02 1.06 1.04 1.02 1.01 0.99 0.94 0.91 0.86 0.80 0.74 0.70 0.64
0.40 0.37 0.36 0.34 0.36 0.38 0.35 0.31 0.33 0.37 0.40 0.42 0.42 0.44 0.43 0.42 0.43 0.43 0.42 0.43 0.44 0.45 0.47 0.49 0.50 0.52 0.54 0.58 0.62 0.65 0.68 0.69 0.71 0.73 0.76 0.81 0.87 0.91 0.97 0.99 0.97 0.92 0.88 0.83 0.81 0.77 0.71 0.66 0.67
0.36 0.42 0.38 0.36 0.34 0.27 0.35 0.21 0.27 0.32 0.36 0.37 0.40 0.41 0.42 0.42 0.45 0.45 0.44 0.42 0.43 0.45 0.48 0.49 0.50 0.52 0.53 0.54 0.54 0.54 0.54 0.54 0.59 0.62 0.68 0.71 0.73 0.74 0.78 0.82 0.85 0.85 0.84 0.80 0.79 0.78 0.71 0.67 0.61
0.37 0.42 0.39 0.37 0.32 0.29 0.27 0.23 0.25 0.33 0.31 0.37 0.41 0.42 0.43 0.45 0.44 0.45 0.44 0.45 0.45 0.44 0.43 0.44 0.45 0.45 0.48 0.50 0.52 0.52 0.52 0.54 0.56 0.58 0.59 0.60 0.62 0.63 0.64 0.66 0.69 0.72 0.74 0.75 0.75 0.73 0.70 0.68 0.64
0.44 0.39 0.37 0.35 0.31 0.22 0.25 0.24 0.24 0.29 0.33 0.37 0.38 0.40 0.41 0.43 0.44 0.43 0.42 0.42 0.41 0.41 0.41 0.40 0.42 0.42 0.43 0.44 0.44 0.44 0.46 0.47 0.48 0.50 0.51 0.54 0.57 0.58 0.59 0.61 0.62 0.64 0.64 0.65 0.68 0.73 0.71 0.67 0.64
0.39 0.34 0.25 0.21 0.21 0.19 0.28 0.25 0.26 0.34 0.38 0.37 0.36 0.37 0.40 0.43 0.44 0.43 0.42 0.42 0.43 0.43 0.41 0.42 0.43 0.43 0.44 0.43 0.43 0.43 0.40 0.39 0.39 0.41 0.43 0.46 0.47 0.50 0.53 0.56 0.58 0.58 0.60 0.61 0.63 0.64 0.66 0.69 0.66
0.35 0.33 0.24 0.16 0.16 0.18 0.29 0.20 0.24 0.33 0.35 0.36 0.36 0.38 0.41 0.42 0.41 0.41 0.44 0.46 0.46 0.47 0.45 0.44 0.44 0.42 0.43 0.41 0.39 0.40 0.40 0.36 0.35 0.35 0.36 0.37 0.38 0.40 0.42 0.44 0.46 0.51 0.56 0.57 0.58 0.59 0.61 0.62 0.64
0.35 0.31 0.37 0.29 0.29 0.23 0.23 0.25 0.30 0.32 0.31 0.34 0.37 0.38 0.39 0.41 0.41 0.42 0.44 0.46 0.46 0.45 0.42 0.38 0.35 0.34 0.34 0.32 0.30 0.28 0.30 0.32 0.32 0.30 0.30 0.30 0.32 0.34 0.34 0.35 0.36 0.38 0.40 0.42 0.46 0.52 0.54 0.55 0.56
0.37 0.39 0.27 0.30 0.18 0.15 0.16 0.17 0.17 0.23 0.27 0.32 0.34 0.36 0.38 0.40 0.41 0.45 0.47 0.48 0.47 0.43 0.39 0.35 0.31 0.29 0.29 0.28 0.28 0.26 0.24 0.26 0.27 0.27 0.27 0.25 0.26 0.28 0.27 0.26 0.28 0.29 0.30 0.32 0.36 0.37 0.38 0.42 0.51
0.30 0.26 0.28 0.27 0.24 0.16 0.13 0.12 0.24 0.26 0.29 0.30 0.33 0.35 0.36 0.38 0.43 0.44 0.43 0.43 0.38 0.32 0.26 0.23 0.22 0.21 0.21 0.21 0.22 0.24 0.22 0.22 0.25 0.23 0.23 0.23 0.24 0.24 0.24 0.24 0.24 0.25 0.24 0.25 0.26 0.26 0.28 0.31 0.31
0.31 0.27 0.28 0.21 0.19 0.23 0.20 0.12 0.29 0.30 0.33 0.35 0.34 0.35 0.39 0.38 0.35 0.34 0.30 0.29 0.25 0.22 0.21 0.20 0.20 0.20 0.19 0.19 0.20 0.19 0.20 0.21 0.21 0.21 0.21 0.21 0.21 0.21 0.23 0.22 0.21 0.21 0.21 0.22 0.22 0.24 0.24 0.25 0.25

GFSSGP_prec_pwat_033.txt.gz
Precipitable_Water
0.36 0.46 0.56 0.53 0.27 0.24 0.18 0.20 0.26 0.22 0.23 0.28 0.30 0.27 0.26 0.26 0.22 0.17 0.48 0.62 0.73 0.79 0.98 1.13 1.24 1.31 1.36 1.42 1.39 1.35 1.37 1.42 1.41 1.39 1.37 1.39 1.44 1.39 1.36 1.33 1.26 1.16 1.13 1.11 1.12 1.09 1.03 1.01 0.98
0.42 0.48 0.53 0.37 0.20 0.14 0.15 0.22 0.20 0.23 0.26 0.27 0.28 0.28 0.25 0.21 0.32 0.36 0.41 0.60 0.70 0.80 0.94 1.08 1.18 1.25 1.32 1.37 1.35 1.31 1.30 1.30 1.29 1.26 1.24 1.22 1.22 1.20 1.21 1.17 1.07 1.04 1.05 1.04 1.01 0.98 0.98 0.98 0.97
0.44 0.50 0.34 0.24 0.17 0.12 0.13 0.20 0.21 0.24 0.28 0.24 0.22 0.30 0.25 0.23 0.33 0.36 0.47 0.57 0.70 0.79 0.89 1.01 1.12 1.21 1.26 1.29 1.31 1.29 1.24 1.22 1.19 1.17 1.15 1.10 1.09 1.11 1.13 1.07 1.03 1.01 1.00 0.97 0.96 0.90 0.87 0.87 0.88
0.39 0.38 0.31 0.17 0.13 0.16 0.16 0.17 0.20 0.23 0.27 0.27 0.25 0.23 0.28 0.35 0.34 0.40 0.50 0.57 0.62 0.75 0.89 0.93 1.07 1.15 1.22 1.25 1.24 1.21 1.18 1.15 1.11 1.06 1.07 1.11 1.10 1.06 1.03 1.01 1.00 0.94 0.94 0.94 0.92 0.88 0.80 0.73 0.68
0.37 0.29 0.18 0.16 0.16 0.18 0.21 0.20 0.21 0.22 0.24 0.25 0.27 0.22 0.23 0.34 0.48 0.48 0.51 0.59 0.59 0.71 0.86 0.91 1.00 1.09 1.15 1.19 1.20 1.19 1.16 1.16 1.12 1.06 1.12 1.05 1.02 1.01 0.99 0.99 0.97 0.90 0.86 0.87 0.87 0.83 0.76 0.65 0.54
0.23 0.23 0.14 0.12 0.15 0.19 0.23 0.23 0.25 0.22 0.23 0.23 0.23 0.22 0.24 0.38 0.42 0.46 0.54 0.55 0.65 0.67 0.80 0.87 0.94 1.01 1.06 1.09 1.14 1.16 1.16 1.18 1.13 1.10 1.15 1.10 1.11 1.03 0.99 0.97 0.94 0.87 0.84 0.83 0.81 0.77 0.68 0.52 0.41
0.20 0.15 0.12 0.14 0.15 0.17 0.22 0.26 0.21 0.22 0.22 0.22 0.26 0.19 0.25 0.33 0.39 0.44 0.53 0.57 0.62 0.74 0.76 0.82 0.91 0.98 1.04 1.07 1.10 1.14 1.17 1.17 1.14 1.12 1.16 1.13 1.12 1.04 1.00 0.99 0.92 0.81 0.77 0.78 0.77 0.69 0.58 0.42 0.36
0.23 0.17 0.12 0.15 0.14 0.16 0.24 0.24 0.26 0.24 0.23 0.29 0.29 0.20 0.20 0.28 0.37 0.45 0.54 0.59 0.60 0.65 0.73 0.76 0.84 0.94 1.00 1.04 1.08 1.12 1.14 1.14 1.12 1.13 1.15 1.15 1.13 1.07 1.04 1.00 0.96 0.86 0.75 0.75 0.72 0.63 0.50 0.43 0.36
0.26 0.12 0.10 0.14 0.16 0.19 0.25 0.23 0.28 0.33 0.29 0.29 0.29 0.28 0.30 0.34 0.39 0.41 0.43 0.49 0.54 0.59 0.66 0.76 0.79 0.85 0.93 0.99 1.05 1.09 1.12 1.12 1.10 1.12 1.14 1.13 1.11 1.08 1.07 1.02 1.02 0.94 0.84 0.73 0.70 0.60 0.50 0.43 0.35
0.18 0.12 0.12 0.19 0.24 0.23 0.25 0.26 0.28 0.27 0.26 0.26 0.29 0.34 0.37 0.37 0.38 0.39 0.38 0.38 0.43 0.50 0.61 0.73 0.80 0.82 0.90 0.96 1.00 1.05 1.06 1.10 1.10 1.09 1.08 1.08 1.09 1.06 1.04 1.04 1.03 1.02 0.92 0.78 0.72 0.60 0.52 0.43 0.32
0.22 0.14 0.19 0.22 0.26 0.27 0.25 0.27 0.33 0.30 0.29 0.33 0.32 0.35 0.37 0.38 0.38 0.38 0.38 0.37 0.36 0.42 0.48 0.62 0.74 0.88 0.89 0.90 0.96 1.01 1.04 1.00 1.05 1.09 1.10 1.07 1.07 1.07 1.06 1.01 0.98 1.01 0.97 0.86 0.74 0.63 0.50 0.38 0.29
0.20 0.26 0.27 0.28 0.31 0.31 0.29 0.35 0.34 0.35 0.34 0.39 0.40 0.39 0.39 0.38 0.38 0.40 0.40 0.41 0.40 0.40 0.42 0.46 0.61 0.75 0.86 0.93 0.92 0.95 0.97 1.01 0.99 1.07 1.09 1.07 1.01 1.01 1.01 1.00 0.98 0.96 0.97 0.89 0.79 0.63 0.52 0.39 0.33
0.28 0.31 0.33 0.35 0.35 0.34 0.35 0.34 0.35 0.35 0.39 0.42 0.42 0.42 0.43 0.44 0.44 0.45 0.46 0.47 0.47 0.45 0.47 0.47 0.48 0.61 0.76 0.84 0.90 0.93 0.93 0.99 1.05 1.07 1.08 1.10 1.01 0.97 1.01 0.99 0.99 0.97 0.95 0.90 0.84 0.72 0.56 0.44 0.33
0.33 0.33 0.33 0.33 0.33 0.34 0.32 0.35 0.38 0.39 0.43 0.43 0.44 0.45 0.46 0.45 0.45 0.46 0.46 0.46 0.47 0.49 0.51 0.54 0.54 0.57 0.75 0.80 0.85 0.90 0.98 1.02 1.06 1.09 1.09 1.12 1.09 1.03 0.98 0.98 1.00 0.99 0.97 0.91 0.86 0.80 0.69 0.52 0.38
0.39 0.33 0.36 0.36 0.35 0.36 0.40 0.36 0.37 0.42 0.45 0.44 0.44 0.46 0.47 0.46 0.45 0.44 0.47 0.47 0.48 0.50 0.52 0.54 0.57 0.62 0.71 0.80 0.89 0.97 1.02 1.08 1.09 1.12 1.17 1.19 1.18 1.13 1.03 1.05 1.05 1.04 1.04 0.99 0.91 0.86 0.78 0.66 0.49
0.36 0.36 0.30 0.34 0.38 0.40 0.39 0.31 0.39 0.43 0.42 0.41 0.44 0.45 0.46 0.46 0.47 0.49 0.50 0.51 0.52 0.53 0.54 0.58 0.62 0.67 0.75 0.84 0.91 0.99 1.11 1.17 1.18 1.20 1.24 1.25 1.25 1.26 1.18 1.11 1.07 1.06 1.06 1.07 0.98 0.90 0.81 0.75 0.62
0.34 0.27 0.28 0.31 0.38 0.37 0.34 0.30 0.39 0.45 0.44 0.43 0.45 0.46 0.46 0.47 0.48 0.51 0.53 0.54 0.56 0.57 0.57 0.59 0.63 0.68 0.78 0.87 0.94 1.03 1.11 1.15 1.20 1.21 1.24 1.27 1.29 1.29 1.22 1.18 1.16 1.11 1.08 1.11 1.04 0.96 0.88 0.78 0.69
0.28 0.28 0.31 0.31 0.37 0.38 0.36 0.36 0.42 0.45 0.43 0.41 0.43 0.44 0.45 0.46 0.47 0.50 0.52 0.54 0.54 0.54 0.55 0.57 0.61 0.66 0.74 0.81 0.87 0.91 0.97 1.02 1.05 1.05 1.09 1.17 1.18 1.18 1.17 1.18 1.17 1.16 1.10 1.11 1.09 1.00 0.90 0.82 0.76
0.36 0.34 0.32 0.37 0.42 0.38 0.37 0.37 0.38 0.41 0.41 0.41 0.43 0.43 0.43 0.43 0.46 0.47 0.48 0.49 0.50 0.50 0.50 0.52 0.54 0.58 0.64 0.69 0.72 0.74 0.76 0.83 0.87 0.90 0.97 1.03 1.07 1.09 1.08 1.07 1.10 1.11 1.08 1.06 1.04 0.99 0.91 0.83 0.79
0.39 0.35 0.35 0.39 0.42 0.39 0.37 0.33 0.38 0.41 0.40 0.41 0.40 0.40 0.41 0.41 0.42 0.43 0.46 0.47 0.46 0.45 0.46 0.47 0.49 0.53 0.55 0.59 0.62 0.65 0.67 0.69 0.74 0.77 0.82 0.89 0.93 0.96 0.99 1.01 1.00 1.00 0.98 0.96 0.95 0.92 0.84 0.82 0.80
0.41 0.37 0.36 0.35 0.39 0.38 0.33 0.31 0.34 0.39 0.40 0.40 0.41 0.42 0.42 0.41 0.40 0.41 0.43 0.44 0.44 0.44 0.45 0.47 0.48 0.50 0.52 0.55 0.58 0.60 0.63 0.65 0.67 0.69 0.72 0.71 0.75 0.79 0.82 0.86 0.90 0.93 0.93 0.88 0.88 0.84 0.78 0.72 0.75
0.37 0.44 0.41 0.36 0.33 0.27 0.35 0.22 0.28 0.33 0.33 0.36 0.39 0.40 0.41 0.39 0.41 0.41 0.43 0.43 0.43 0.42 0.42 0.43 0.44 0.45 0.47 0.49 0.48 0.48 0.48 0.47 0.52 0.55 0.59 0.61 0.64 0.66 0.68 0.70 0.72 0.75 0.78 0.78 0.80 0.82 0.78 0.73 0.67
0.39 0.43 0.38 0.36 0.33 0.30 0.29 0.24 0.25 0.31 0.29 0.33 0.38 0.40 0.40 0.39 0.41 0.41 0.41 0.40 0.40 0.40 0.38 0.39 0.39 0.40 0.40 0.40 0.41 0.41 0.40 0.41 0.42 0.44 0.47 0.50 0.52 0.54 0.56 0.59 0.61 0.63 0.65 0.68 0.70 0.71 0.72 0.72 0.67
0.45 0.40 0.39 0.36 0.31 0.22 0.27 0.25 0.22 0.26 0.31 0.34 0.40 0.43 0.42 0.39 0.41 0.41 0.42 0.41 0.40 0.41 0.41 0.43 0.42 0.41 0.42 0.41 0.40 0.39 0.39 0.39 0.39 0.39 0.39 0.39 0.40 0.42 0.44 0.47 0.50 0.55 0.58 0.59 0.60 0.63 0.66 0.68 0.70
0.42 0.37 0.27 0.23 0.22 0.19 0.28 0.23 0.22 0.32 0.36 0.38 0.39 0.40 0.39 0.39 0.38 0.39 0.42 0.41 0.40 0.41 0.41 0.42 0.41 0.40 0.41 0.38 0.35 0.34 0.34 0.34 0.35 0.36 0.35 0.36 0.36 0.36 0.36 0.37 0.37 0.39 0.41 0.45 0.50 0.55 0.58 0.61 0.62
0.38 0.36 0.28 0.18 0.18 0.18 0.27 0.20 0.24 0.36 0.40 0.41 0.40 0.37 0.37 0.36 0.38 0.40 0.42 0.42 0.41 0.40 0.39 0.39 0.37 0.35 0.34 0.34 0.33 0.30 0.28 0.26 0.26 0.26 0.27 0.29 0.33 0.35 0.35 0.35 0.34 0.33 0.34 0.36 0.37 0.36 0.39 0.45 0.52
0.37 0.32 0.39 0.29 0.29 0.22 0.23 0.26 0.31 0.34 0.34 0.34 0.33 0.34 0.34 0.36 0.37 0.40 0.43 0.44 0.43 0.41 0.38 0.35 0.34 0.33 0.30 0.26 0.24 0.23 0.23 0.22 0.22 0.22 0.23 0.23 0.24 0.25 0.23 0.26 0.27 0.27 0.27 0.27 0.28 0.31 0.34 0.37 0.38
0.40 0.41 0.29 0.31 0.20 0.16 0.18 0.18 0.18 0.23 0.25 0.30 0.32 0.35 0.37 0.40 0.41 0.42 0.44 0.45 0.42 0.39 0.35 0.31 0.28 0.25 0.23 0.22 0.21 0.21 0.21 0.21 0.21 0.21 0.21 0.20 0.19 0.21 0.22 0.20 0.21 0.23 0.24 0.22 0.21 0.21 0.23 0.26 0.27
0.35 0.31 0.32 0.30 0.26 0.17 0.13 0.13 0.24 0.24 0.29 0.32 0.35 0.39 0.40 0.40 0.39 0.41 0.43 0.40 0.34 0.30 0.27 0.24 0.20 0.18 0.18 0.18 0.19 0.18 0.18 0.17 0.17 0.17 0.17 0.17 0.18 0.19 0.19 0.20 0.19 0.18 0.20 0.20 0.20 0.19 0.18 0.19 0.22
0.38 0.31 0.31 0.22 0.19 0.22 0.20 0.15 0.32 0.32 0.35 0.37 0.37 0.36 0.38 0.39 0.40 0.42 0.37 0.30 0.28 0.25 0.22 0.21 0.21 0.20 0.21 0.21 0.20 0.20 0.21 0.20 0.20 0.19 0.19 0.18 0.17 0.16 0.15 0.15 0.14 0.14 0.14 0.17 0.17 0.16 0.16 0.16 0.17